Location: Balaclava NSW 2575, Australia
(34.4510°S, 150.4953°E)
Time: 23:51:31
(UTC+10:00)

XW-2C - Pass Details

Date: 04 August 2021
Orbit: 505 x 524 km, 97.5° (Epoch: 26 September)

Event Time Altitude Azimuth Distance (km) Brightness Sun altitude
Rises 18:41:09 0° 186° (S) 2,661 ? -17.1°
Reaches altitude 10° 18:43:40 10° 202° (SSW) 1,760 ? -17.6°
Maximum altitude 18:46:29 20° 250° (WSW) 1,235 ? -18.1°
Drops below altitude 10° 18:49:16 10° 299° (WNW) 1,734 ? -18.7°
Sets 18:51:43 0° 316° (NW) 2,607 ? -19.2°
